Current Weather Conditions: station 42395

sailwx.info

Wind from 340 at 11 knots gusting 15

Wave height 0.9 meters (2 feet), 6 second period

Air temperature 30.8° C

Last reported at 2019-Mar-22 04:40 UTC.
Time now 2019-Mar-22 05:59 UTC

Location: N 26°24' W 090°48'.
View on Google Maps.

See reports from other nearby stations

  
Tides and Currents Weather Stations Pressure Air Temp Water Temp Dewpoint Dewpoint Depression Visibility Wind Speed Wind Dir Waves Ship Positions
date/time (UTC)wind fromknots sea level pressurealtimeterstation pressurevisibilityair tempwater tempwave heightnotes
2019-Mar-22 04:40 340 11 gusting 15 30.8 0.9
2019-Mar-22 04:20 350 11 gusting 17 30.8 0.9
2019-Mar-22 04:00 350 11 gusting 15 30.9 0.9
2019-Mar-22 03:40 340 13 gusting 17 31.0 0.9
2019-Mar-22 03:20 340 11 gusting 15 31.0 0.9
2019-Mar-22 03:00 350 11 gusting 15 31.1 0.9
2019-Mar-22 02:40 340 11 gusting 17 31.2 0.9
2019-Mar-22 02:20 340 11 gusting 15 31.3 1.0
2019-Mar-22 02:00 340 13 gusting 15 31.3 1.0
2019-Mar-22 01:40 340 11 gusting 17 31.3 1.1
2019-Mar-22 01:20 350 11 gusting 13 31.5 1.1
2019-Mar-22 01:00 340 11 gusting 15 31.5 1.1
2019-Mar-22 00:40 340 9 gusting 13 31.5 1.1
2019-Mar-22 00:20 350 11 gusting 15 31.6 1.0
2019-Mar-22 00:00 360 11 gusting 15 31.7 1.0
2019-Mar-21 23:40 350 11 gusting 15 31.8 1.1
2019-Mar-21 23:20 350 11 gusting 15 31.9 1.1
2019-Mar-21 23:00 360 11 gusting 15 31.9 1.1
2019-Mar-21 22:40 350 11 gusting 15 32.0 1.0
2019-Mar-21 22:20 350 11 gusting 17 32.1 1.0
2019-Mar-21 22:00 350 11 gusting 15 32.1 1.0
2019-Mar-21 21:40 350 13 gusting 17 32.1 1.0
2019-Mar-21 21:20 340 13 gusting 17 32.3 1.0
2019-Mar-21 21:00 340 13 gusting 19 32.2 1.0
2019-Mar-21 20:40 340 13 gusting 17 32.2 1.0
2019-Mar-21 20:20 340 15 gusting 19 32.3 0.9
2019-Mar-21 20:00 360 13 gusting 17 32.6 0.9
2019-Mar-21 19:40 350 15 gusting 19 32.8 1.0
2019-Mar-21 19:20 360 13 gusting 17 32.8 1.0
2019-Mar-21 19:00 360 11 gusting 15 32.8 1.0
2019-Mar-21 18:40 360 13 gusting 17 32.8 1.0
2019-Mar-21 18:20 360 11 gusting 15 32.8 1.0
2019-Mar-21 18:00 360 11 gusting 17 32.8 1.0
2019-Mar-21 17:40 350 11 gusting 17 32.8 1.0
2019-Mar-21 17:00 010 13 gusting 17 32.9 1.0
2019-Mar-21 16:40 350 15 gusting 19 32.8 1.0
2019-Mar-21 16:20 010 13 gusting 17 32.8 1.0
2019-Mar-21 16:00 010 13 gusting 17 32.7 1.0
2019-Mar-21 15:40 010 13 gusting 17 32.5 1.0
2019-Mar-21 15:20 32.5 1.0
2019-Mar-21 14:40 010 13 gusting 17 32.2 1.0
2019-Mar-21 14:20 010 13 gusting 21 32.1 1.1
2019-Mar-21 14:00 010 13 gusting 17 32.0 1.1
2019-Mar-21 13:20 010 15 gusting 19 31.8 1.0
2019-Mar-21 13:00 010 13 gusting 19 31.6 1.0
2019-Mar-21 12:40 360 15 gusting 21 31.5 1.0
2019-Mar-21 12:20 010 13 gusting 17 31.4 1.0
2019-Mar-21 12:00 010 13 gusting 19 31.3 1.0
2019-Mar-21 11:40 360 13 gusting 17 31.3 1.0
2019-Mar-21 11:20 360 13 gusting 17 31.3 0.9
2019-Mar-21 11:00 010 13 gusting 17 31.3 0.9
2019-Mar-21 10:40 360 13 gusting 17 31.2 0.9
2019-Mar-21 10:20 360 11 gusting 17 31.2 1.0
2019-Mar-21 09:40 010 13 gusting 17 31.3 1.0
2019-Mar-21 09:20 360 15 gusting 19 31.4 1.0
2019-Mar-21 09:00 010 15 gusting 19 31.3 1.0
2019-Mar-21 08:40 010 15 gusting 19 31.4 1.0
2019-Mar-21 08:20 360 13 gusting 21 31.3 0.9
2019-Mar-21 08:00 360 13 gusting 17 31.2 0.9
2019-Mar-21 07:40 360 11 gusting 17 31.2 0.9
2019-Mar-21 07:20 010 11 gusting 17 31.3 1.0
2019-Mar-21 07:00 360 13 gusting 15 31.4 1.0
2019-Mar-21 06:40 010 11 gusting 17 31.4 1.0
2019-Mar-21 06:20 360 11 gusting 15 31.5 1.0
2019-Mar-21 06:00 350 11 gusting 15 31.5 1.0
2019-Mar-21 05:40 360 9 gusting 13 31.6 1.0
2019-Mar-21 05:20 010 9 gusting 11 31.6 1.0
2019-Mar-21 05:00 360 9 gusting 13 31.6 1.0
2019-Mar-21 04:40 360 9 gusting 13 31.7 1.0
2019-Mar-21 04:20 010 9 gusting 13 31.7 1.0
2019-Mar-21 04:00 020 11 gusting 15 31.7 1.0
2019-Mar-21 03:40 020 11 gusting 15 31.8 1.0
2019-Mar-21 03:20 020 9 gusting 13 31.7 1.0
2019-Mar-21 03:00 020 11 gusting 15 31.7 1.0
2019-Mar-21 02:40 020 11 gusting 13 31.7 1.1
2019-Mar-21 02:20 020 11 gusting 15 31.8 1.1
2019-Mar-21 02:00 020 11 gusting 13 31.8 1.1
2019-Mar-21 01:40 020 11 gusting 15 31.8 1.1
2019-Mar-21 01:20 020 11 gusting 17 31.8 1.1
2019-Mar-21 01:00 020 11 gusting 15 31.8 1.1
2019-Mar-21 00:40 030 13 gusting 17 31.9 1.1
2019-Mar-21 00:20 030 13 gusting 15 31.9 1.2
2019-Mar-21 00:00 030 13 gusting 17 32.0 1.2
2019-Mar-20 23:40 020 15 gusting 19 32.0 1.2
2019-Mar-20 23:20 030 15 gusting 19 32.0 1.2
2019-Mar-20 23:00 020 13 gusting 17 31.9 1.2
2019-Mar-20 22:40 020 15 gusting 17 32.1 1.3
2019-Mar-20 22:20 020 15 gusting 19 32.5 1.2
2019-Mar-20 22:00 020 15 gusting 19 32.5 1.2
2019-Mar-20 21:40 030 13 gusting 19 32.6 1.2
2019-Mar-20 21:20 020 15 gusting 19 32.7 1.3
2019-Mar-20 21:00 030 13 gusting 19 32.8 1.3
2019-Mar-20 20:40 030 13 gusting 17 32.9 1.3
2019-Mar-20 20:20 020 13 gusting 19 33.0 1.4
2019-Mar-20 20:00 030 11 gusting 17 33.0 1.4
2019-Mar-20 19:40 040 11 gusting 15 33.0 1.2
2019-Mar-20 19:20 030 9 gusting 13 33.1 1.4
2019-Mar-20 19:00 040 11 gusting 13 33.1 1.4
2019-Mar-20 18:40 030 11 gusting 13 33.1 1.4
2019-Mar-20 18:20 020 9 gusting 13 33.2 1.4
2019-Mar-20 18:00 040 11 gusting 15 33.2 1.4
2019-Mar-20 17:40 040 13 gusting 17 33.2 1.4
2019-Mar-20 17:20 030 11 gusting 19 33.2 1.5
2019-Mar-20 17:00 040 9 gusting 13 33.2 1.5
2019-Mar-20 16:40 040 11 gusting 15 33.2 1.5
2019-Mar-20 16:20 040 11 gusting 15 33.3 1.5
2019-Mar-20 16:00 040 9 gusting 15 33.3 1.5
2019-Mar-20 15:40 050 11 gusting 15 33.2 1.6
2019-Mar-20 15:20 050 11 gusting 15 33.2 1.7
2019-Mar-20 15:00 050 9 gusting 15 33.1 1.7
2019-Mar-20 14:40 050 11 gusting 15 33.0 1.7
2019-Mar-20 14:20 060 11 gusting 15 32.8 1.7
2019-Mar-20 14:00 050 11 gusting 17 32.7 1.7
2019-Mar-20 13:40 040 11 gusting 15 32.5 1.8
2019-Mar-20 13:20 050 11 gusting 15 32.5 1.6
2019-Mar-20 13:00 050 11 gusting 15 32.3 1.6
2019-Mar-20 12:40 040 11 gusting 17 32.2 1.6
2019-Mar-20 12:20 040 11 gusting 15 32.1 2.0
2019-Mar-20 12:00 050 11 gusting 15 32.1 2.0
2019-Mar-20 11:40 050 11 gusting 17 32.1 1.9
2019-Mar-20 11:20 060 11 gusting 17 32.1 1.9
2019-Mar-20 11:00 040 13 gusting 17 32.1 1.9
2019-Mar-20 10:40 050 11 gusting 17 32.1 2.1
2019-Mar-20 10:20 040 13 gusting 17 32.1 2.2
2019-Mar-20 10:00 050 13 gusting 17 32.1 2.2
2019-Mar-20 09:40 050 11 gusting 19 32.1 2.1
2019-Mar-20 09:20 050 11 gusting 19 32.0 2.0
2019-Mar-20 09:00 040 11 gusting 17 32.1 2.0
2019-Mar-20 08:40 050 11 gusting 17 32.1 2.1
2019-Mar-20 08:20 040 11 gusting 19 32.2 2.2
2019-Mar-20 08:00 050 11 gusting 17 32.3 2.2
2019-Mar-20 07:40 060 13 gusting 19 32.3 2.1
2019-Mar-20 07:20 050 15 gusting 19 32.3 2.2
2019-Mar-20 07:00 060 13 gusting 19 32.5 2.2
2019-Mar-20 06:40 050 13 gusting 19 32.4 2.5
2019-Mar-20 06:20 060 15 gusting 19 32.4 2.4
2019-Mar-20 06:00 060 15 gusting 21 32.4 2.4
2019-Mar-20 05:40 060 15 gusting 21 32.3 2.7
2019-Mar-20 05:20 060 15 gusting 19 32.3 2.7
2019-Mar-20 05:00 060 15 gusting 21 32.5 2.7